Overview Statistics Trail Chart Weather Telemetry Raw packets
 

This is the latest recevied weather packets stored in our database for station/object K0APR. If no packets are shown the sender has not sent any weather packets the latest 10 day(s).

<< 28 29 30 31 32 33 34 >>
Time Temp. Humidity Pressure Rain* Wind** Luminosity Snow
1788466586 33.89° C 54% 1006.7 hPa 0 mm - 412 W/m² -
1788466286 33.89° C 54% 1006.4 hPa 0 mm - 525 W/m² -
1788465981 34.44° C 53% 1006.7 hPa 0 mm - 531 W/m² -
1788465676 33.89° C 54% 1006.7 hPa 0 mm - 510 W/m² -
1788465372 33.33° C 55% 1006.7 hPa 0 mm - 535 W/m² -
1788465067 33.33° C 56% 1006.7 hPa 0 mm - 543 W/m² -
1788464762 33.33° C 54% 1007 hPa 0 mm - 550 W/m² -
1788464457 33.33° C 56% 1007 hPa 0 mm - 546 W/m² -
1788464153 33.89° C 55% 1007 hPa 0 mm - 544 W/m² -
1788463849 33.89° C 54% 1007 hPa 0 mm - 553 W/m² -
1788463545 33.89° C 54% 1007 hPa 0 mm - 560 W/m² -
1788463240 34.44° C 53% 1006.7 hPa 0 mm - 544 W/m² -
1788462937 33.89° C 54% 1007 hPa 0 mm - 543 W/m² -
1788462636 33.33° C 55% 1006.4 hPa 0 mm - 548 W/m² -
1788462336 32.78° C 55% 1006.4 hPa 0 mm - 565 W/m² -
1788462030 33.89° C 54% 1006.7 hPa 0 mm - 580 W/m² -
1788461726 33.33° C 55% 1006.7 hPa 0 mm - 573 W/m² -
1788461421 32.78° C 56% 1007 hPa 0 mm - 583 W/m² -
1788461118 32.22° C 57% 1007 hPa 0 mm - 625 W/m² -
1788460817 32.22° C 56% 1007 hPa 0 mm - 489 W/m² -
1788460517 32.22° C 58% 1007 hPa 0 mm - 328 W/m² -
1788460212 31.67° C 57% 1006.7 hPa 0 mm - 358 W/m² -
1788459910 32.22° C 57% 1006.7 hPa 0 mm - 252 W/m² -
1788459607 32.22° C 56% 1007 hPa 0 mm - 594 W/m² -
1788459306 32.78° C 55% 1006.7 hPa 0 mm - 581 W/m² -

* Rain latest hour (hover to see other rain measurements)
** Current wind speed in m/s (hover to see current wind gust speed)